EW4585 Weather Reports


time (UTC)temp
F
wind
direction
speed
knots
gust
knots
rain 1hr
in
rain 24hr
in
rain mn
in
humidity
%
barometer
mb
20260503211459 61 217 5.2 13.0 0.00 0.04 0.04 58 1011.3
20260503210003 60 207 3.5 13.0 0.00 0.04 0.04 60 1011.7
20260503204459 60 209 6.1 13.9 0.00 0.04 0.04 60 1011.9
20260503202959 59 212 3.5 9.6 0.00 0.04 0.04 66 1012.2
20260503201459 56 138 0.9 6.1 0.00 0.04 0.04 74 1012.5
20260503200004 54 107 2.6 7.0 0.00 0.04 0.04 77 1013.1
20260503194459 53 91 0.9 2.6 0.01 0.04 0.04 78 1013.7
20260503193000 52 104 0.9 3.5 0.03 0.04 0.04 82 1014.1
20260503191458 51 292 1.7 2.6 0.04 0.04 0.04 79 1014.1
20260503184458 52 252 0.9 1.7 0.03 0.03 0.03 75 1014.9
20260503183001 54 266 1.7 6.1 0.01 0.01 0.01 72 1015.2
20260503181501 56 240 4.3 10.4 0.00 0.00 0.00 64 1015.3
20260503172959 61 192 3.5 12.2 0.00 0.00 0.00 52 1015.2
20260503171459 63 235 6.1 14.8 0.00 0.00 0.00 51 1015.4
20260503081457 38 219 0.0 1.7 0.00 0.00 0.00 75 1016.6
20260503071457 37 264 0.0 0.0 0.00 0.00 0.00 76 1016.6
20260503052958 38 264 0.0 0.0 0.00 0.00 0.00 76 1017.4
20260503050006 38 264 0.0 0.0 0.00 0.00 0.00 74 1017.6
20260503043000 39 264 0.0 0.0 0.00 0.00 0.00 72 1017.6
20260503041459 39 264 0.0 0.0 0.00 0.00 0.00 70 1017.5
20260503034501 40 264 0.0 0.0 0.00 0.00 0.00 68 1017.5
20260503033000 41 264 0.0 0.0 0.00 0.00 0.00 67 1017.5
20260503031459 41 264 0.0 0.0 0.00 0.00 0.00 66 1017.6
20260503030006 42 264 0.0 0.0 0.00 0.00 0.00 65 1017.6
20260503024500 43 264 0.0 0.0 0.00 0.00 0.00 63 1017.7
20260503023003 43 264 0.0 0.0 0.00 0.00 0.00 62 1017.6
20260503021500 44 264 0.0 0.0 0.00 0.00 0.00 61 1017.5
20260503020005 45 264 0.0 0.0 0.00 0.00 0.00 58 1017.4
20260503014459 46 264 0.0 1.7 0.00 0.00 0.00 54 1017.4
20260503013000 47 264 0.0 0.0 0.00 0.00 0.00 52 1017.2
20260503010004 48 264 0.0 0.9 0.00 0.00 0.00 49 1017.3
20260503004459 49 264 0.0 1.7 0.00 0.00 0.00 46 1017.3
20260503003000 49 263 0.9 2.6 0.00 0.00 0.00 44 1017.1
20260503001500 50 310 1.7 5.2 0.00 0.00 0.00 42 1017.0
20260503000005 50 328 2.6 7.8 0.00 0.00 0.00 42 1016.8
20260502233002 51 338 1.7 5.2 0.00 0.00 0.00 41 1016.8
20260502231459 52 266 1.7 7.8 0.00 0.00 0.00 42 1016.8
20260502230004 52 285 3.5 9.6 0.00 0.00 0.00 43 1016.9
20260502224500 52 320 2.6 8.7 0.00 0.00 0.00 42 1017.0
20260502223001 53 261 2.6 7.0 0.00 0.00 0.00 42 1017.0
20260502221500 53 258 3.5 11.3 0.00 0.00 0.00 40 1016.9
20260502220007 52 308 4.3 7.0 0.00 0.00 0.00 40 1016.8